Regional Weather Roundup
Issued by NWS Sterling, VA

Home | Current Version | Previous Version | Text Only | Print | Product List | Glossary Off
Versions: 1 2 3 4 5 6 7 8 9 10 11 12 13 14 15 16 17 18 19 20 21 22 23 24 25 26 27

000
ASUS41 KLWX 300110
RWRLWX

REGIONAL WEATHER ROUNDUP
NATIONAL WEATHER SERVICE BALTIMORE MD/WASHINGTON DC
900 PM EDT FRI JUL 29 2016

Note: "FAIR" indicates few or no clouds below 12,000 feet
with no significant weather and/or obstructions to visibility.
 TC=TEMPERATURE CELSIUS

 * =Non NWS site. Station does not report precipitation (e.g. rain,
    snow, etc.), thunder, or fog.

DCZ001-MDZ009-015-VAZ040>042-051-053>054-300200-
WASHINGTON METRO

CITY           SKY/WX    TMP DP  RH WIND       PRES   REMARKS
WASHINGTON NAT FAIR      84  72  67 S7        29.90R
DULLES         FAIR      81  68  64 CALM      29.91R
ANDREWS AFB    CLEAR     79  72  79 S3        29.90R
FT BELVOIR     FAIR      80  73  79 S1        29.90R
LEESBURG*      FAIR      82  73  74 CALM      29.92S
GAITHERSBURG*  CLEAR     75  70  83 CALM      29.95S

$$

MDZ006>007-011-014-300200-
BALTIMORE METRO

CITY           SKY/WX    TMP DP  RH WIND       PRES   REMARKS
BWI AIRPORT    PTCLDY    81  73  76 CALM      29.90R
MD SCIENCE CTR   N/A     83  72  69 MISG      29.90R
MARTIN STATE   CLEAR     82  75  78 S3        29.91R
ANNAPOLIS      CLEAR     82  72  71 S3        29.90R
FORT MEADE*    CLEAR     75  72  88 CALM      29.93R

$$

MDZ012-015-019>023-300200-
MARYLAND EASTERN SHORE

CITY           SKY/WX    TMP DP  RH WIND       PRES   REMARKS
OCEAN CITY     CLEAR     76  73  91 CALM      29.92R
SALISBURY      NOT AVBL
BAY BRIDGE AP* CLEAR     81  73  78 S3        29.90R
CAMBRIDGE*     CLEAR     77  72  83 CALM      29.90R
EASTON*        CLEAR     79  77  94 CALM      29.95R

$$

MDZ017>025-300200-
SOUTHERN MARYLAND

CITY           SKY/WX    TMP DP  RH WIND       PRES   REMARKS
PATUXENT RIVER NOT AVBL
ST INIGOES     CLEAR     78  75  90 CALM      29.90R
LEONARDTOWN*     N/A     77  72  83 MISG      29.93R

$$

MDZ003>005-300200-
NORTH CENTRAL MARYLAND

CITY           SKY/WX    TMP DP  RH WIND       PRES   REMARKS
FREDERICK*     CLEAR     77  73  88 SE3       29.94R
HAGERSTOWN APT PTCLDY    84  69  60 S5        29.92R

$$

MDZ501>502-300200-
WESTERN MARYLAND

CITY           SKY/WX    TMP DP  RH WIND       PRES   REMARKS
OAKLAND*       CLEAR     68  63  83 CALM      30.07R
CUMBERLAND*    CLEAR     81  70  69 E3        29.97R

$$

VAZ025>031-300200-
SHENANDOAH VALLEY

CITY           SKY/WX    TMP DP  RH WIND       PRES   REMARKS
WINCHESTER*    FAIR      79  68  69 CALM      29.94R
FRONT ROYAL*   FAIR      77  72  83 SW3       29.93R
LURAY*         NOT AVBL
NEW MARKET*    FAIR      71  68  90 CALM      29.94R
STAUNTON*      FAIR      74  69  84 CALM      29.99R
WAYNESBORO*    FAIR      75  68  79 S8        29.99R

$$

WVZ021-048>050-054>055-300200-
EASTERN WEST VIRGINIA PANHANDLE

CITY           SKY/WX    TMP DP  RH WIND       PRES   REMARKS
MARTINSBURG    FAIR      80  68  66 CALM      29.92R
PETERSBURG*    FAIR      75  71  87 CALM      29.96R

$$

VAZ036>039-050-300200-
CENTRAL FOOTHILLS

CITY           SKY/WX    TMP DP  RH WIND       PRES   REMARKS
CHARLOTTESVILL FAIR      81  69  67 CALM      29.93S
CULPEPER*      FAIR      76  74  94 CALM      29.93S
ORANGE*          N/A     77  77 100 CALM      29.95S
GORDONSVILLE*  FAIR      76  73  90 CALM      29.93S
WARRENTON*     FAIR      76  68  76 CALM      29.91S

$$

VAZ055>057-300200-
NORTH AND CENTRAL PIEDMONT

CITY           SKY/WX    TMP DP  RH WIND       PRES   REMARKS
FREDERICKSBRG* FAIR      80  74  82 CALM      29.91R
STAFFORD*      FAIR      75  73  93 CALM      29.95S

$$

NCZ024-NYZ072-PAZ021-071-VAZ022-071-300200-
OTHER REGIONAL OBSERVATIONS

CITY           SKY/WX    TMP DP  RH WIND       PRES   REMARKS
NEW YORK CITY  CLOUDY    78  67  68 S3        29.92R
PHILADELPHIA   PTCLDY    81  70  69 SE6       29.90R
PITTSBURGH     PTCLDY    80  63  55 CALM      29.95R
ROANOKE        MOCLDY    78  70  76 W8        29.99R
RICHMOND       FAIR      78  73  84 CALM      29.92R
RALEIGH        PTCLDY    81  72  74 CALM      29.93S

$$

ANZ530>537-300200-
MARINE OBSERVATIONS

STATION/POSITION TIME  TEMP    WIND        PRES
                       AIR SEA DIR/SP/G
                 (UTC) (F)     (DEG/KT/KT) (MB)
THOMAS PT LIGHT  0100   84 84  180/  6/  7 1013.9R
BALT KEY BRIDGE  0048          210/  5/  6 1012.4
COVE POINT       0048          210/  5/  5 1013.2
LEWISETTA        0036      87  200/  4/  5 1012.4
SOLOMONS ISLAND  0036      86  190/  5/  5   N/A
PINEY POINT      0048          240/  2/  3   N/A

$$





USA.gov is the U.S. government's official web portal to all federal, state and local government web resources and services.